Location: Delettes
(50.6178°N, 2.2123°E)
Time: 18:10:50
(UTC+00:00)

NOSS 2-3 (E) - Pass Details

Date: 27 February 2020
Orbit: 583 x 1628 km, 63.4° (Epoch: 26 March)

Event Time Altitude Azimuth Distance (km) Brightness Sun altitude
Rises 18:51:25 0° 237° (WSW) 2,856 7.9 -14.0°
Reaches altitude 10° 18:53:32 10° 242° (WSW) 2,011 7.1 -14.3°
Maximum altitude 18:57:56 57° 321° (NW) 837 4.4 -15.0°
Drops below altitude 10° 19:03:22 10° 41° (NE) 2,468 6.3 -15.8°
Enters shadow 19:04:14 - 42° (NE) 2,799 6.6 -16.0°
